Location: Blairvadach
(56.2780°N, 6.9720°W)
Time: 07:32:16
(UTC+00:00)

Envisat - Pass Details

Date: 22 November 2019
Orbit: 764 x 766 km, 98.1° (Epoch: 16 December)

Event Time Altitude Azimuth Distance (km) Brightness Sun altitude
Rises 07:24:07 0° 16° (NNE) 3,248 6.2 -7.4°
Reaches altitude 10° 07:26:28 10° 19° (NNE) 2,317 5.4 -7.1°
Maximum altitude 07:31:33 68° 103° (ESE) 829 3.5 -6.5°
Drops below altitude 10° 07:36:36 10° 186° (S) 2,299 5.8 -5.8°
Sets 07:38:55 0° 189° (S) 3,221 6.5 -5.5°
